Tracking 30918 objects as of 2-Jul-2025
HD Live streaming from Space Station
objects crossing your sky now

STARLINK-5749

Track STARLINK-5749 now!
10-day predictions
STARLINK-5749 is classified as:


NORAD ID: 55569
Int'l Code: 2023-020A
Perigee: 565.4 km
Apogee: 567.1 km
Inclination: 43.0 °
Period: 95.8 minutes
Semi major axis: 6937 km
RCS: Unknown
Launch date: February 12, 2023
Source: United States (US)
Launch site: AIR FORCE EASTERN TEST RANGE (AFETR)
Your satellite tracking list
Your tracking list is empty




NASA's NSSDC Master Catalog

Two Line Element Set (TLE):
1 55569U 23020A   25182.59337863  .00000095  00000-0  22073-4 0  9991
2 55569  43.0035 289.3936 0001240 269.8471  90.2229 15.02535673132211
Source of the keplerian elements: AFSPC